Regional Weather Roundup
Issued by NWS Cleveland, OH

Home | Current Version | Previous Version | Graphics & Text | Print | Product List | Glossary On
Versions: 1 2 3 4 5 6 7 8 9 10 11 12 13 14 15 16 17 18 19 20 21 22 23 24 25 26 27 28 29 30 31 32 33 34 35 36 37 38 39 40 41 42 43 44 45 46 47 48 49 50
561
ASUS41 KCLE 231100
RWRCLE
OHIO REGIONAL WEATHER ROUNDUP
NATIONAL WEATHER SERVICE WILMINGTON, OH
600 AM EST THU NOV 23 2017

NOTE: "FAIR" INDICATES FEW OR NO CLOUDS BELOW 12,000 FEET WITH NO
SIGNIFICANT WEATHER AND/OR OBSTRUCTIONS TO VISIBILITY.

OHZ001>008-015>018-024>027-034-035-043-044-231200-
   NORTHWEST OHIO

CITY           SKY/WX    TMP DP  RH WIND       PRES   REMARKS
DEFIANCE       MOCLDY    28  23  81 S7        30.13F WCI  21
FINDLAY        FAIR      30  23  75 S8        30.14F WCI  22
TOLEDO EXPRESS MOCLDY    29  25  85 S6        30.12F WCI  23
TOLEDO EXEC    MOCLDY    30  23  75 S8        30.14F WCI  22
LIMA           MOCLDY    29  24  82 S7        30.14F WCI  22
$$

OHZ009>014-019>023-028>033-038-089-231200-
   NORTHEAST OHIO

CITY           SKY/WX    TMP DP  RH WIND       PRES   REMARKS
CLE-HOPKINS    MOCLDY    29  20  69 S7        30.18F WCI  22
CLE-LAKEFRONT  MOCLDY    30  18  60 S10       30.16F WCI  21
CUY CO. ARPT   NOT AVBL
LORAIN-ELYRIA  FAIR      26  18  71 SW5       30.16F WCI  20
ASHTABULA      CLOUDY    30  20  66 SW13      30.15F WCI  20
AKRON-CANTON   FAIR      25  18  74 S3        30.16S
WOOSTER        NOT AVBL
MANSFIELD      MOCLDY    26  22  84 S7        30.14F WCI  18
YOUNGSTOWN     CLOUDY    27  20  75 SW3       30.15F
$$

OHZ042-051>053-060>062-070>072-077>081-231200-
  SOUTHWEST OHIO

CITY           SKY/WX    TMP DP  RH WIND       PRES   REMARKS
CINC-COVINGTON CLOUDY    24  24 100 CALM      30.18S
CINC-LUNKEN    FOG       25  25 100 CALM      30.22S VSB 3/4
HAMILTON       FAIR      26  25  96 CALM      30.20F
DAYTON         NOT AVBL
WRIGHT-PAT AFB MOCLDY    24  21  88 CALM      30.17F
DAYTON GENERAL FAIR      26  21  81 CALM      30.17S
WILMINGTON     FAIR      22  21  96 CALM      30.17F
$$

OHZ036-037-039>041-045>050-054>059-063>069-073>076-082>088-231200-
  CENTRAL AND SOUTHEAST OHIO

CITY           SKY/WX    TMP DP  RH WIND       PRES   REMARKS
COLUMBUS       MOCLDY    25  22  88 CALM      30.19S
OSU AIRPORT    FAIR      24  22  91 CALM      30.18S
BOLTON FIELD   NOT AVBL
RICKENBACK AFB NOT AVBL
NEWARK         FAIR      23  19  85 CALM      30.18F
MARION         FAIR      27  21  78 S6        30.16F WCI  20
LANCASTER      FAIR      19  17  92 CALM      30.19S
ZANESVILLE     FAIR      21  18  88 CALM      30.19R
NEW PHILLY     FAIR      24  20  84 CALM      30.19S
$$




USA.gov is the U.S. government's official web portal to all federal, state and local government web resources and services.